User: anonymous   Login
Location: Unspecified
(0.0000°N, 0.0000°E)
Time: 13:15:08
(UTC+01:00)
Language:

YAOGAN 1 - Orbit

View from above orbital plane
View from above orbital plane
View from above satellite
View from above satellite

Ground track
Ground track

The orbit data is extracted from the following two-line orbital elements,

1 29092U 06015A   16338.22890119  .00000090  00000-0  17836-4 0  9995
2 29092  98.0054 343.3846 0001429  89.7160 270.4217 14.82743225573329
Epoch (UTC): 03 December 2016 05:29:37
Eccentricity: 0.0001429
inclination: 98.0054°
perigee height: 619 km
apogee height: 621 km
right ascension of ascending node: 343.3846°
argument of perigee: 89.7160°
revolutions per day: 14.82743225
mean anomaly at epoch: 270.4217°
orbit number at epoch: 57332

The dashed part of the orbit path shows where the satellite is in the earth's shadow,  

DLR